Location: Unspecified
(0.0000°N, 0.0000°E)
Time: 13:48:33
(UTC+00:00)

DMSP B5D2-3 - Pass Details

Date: 12 June 2023
Orbit: 819 x 838 km, 98.7° (Epoch: 21 September)

Event Time Altitude Azimuth Distance (km) Brightness Sun altitude
Rises 05:07:23 0° 147° (SSE) 3,372 8.5 -12.0°
Reaches altitude 10° 05:10:02 10° 136° (SE) 2,433 7.9 -11.4°
Maximum altitude 05:14:38 29° 77° (ENE) 1,476 7.4 -10.4°
Drops below altitude 10° 05:19:11 10° 19° (NNE) 2,413 8.2 -9.3°
Sets 05:21:47 0° 8° (N) 3,340 8.8 -8.7°
